Regional Weather Roundup
Issued by NWS

Home | Current Version | Previous Version | Text Only | Print | Product List | Glossary Off
Versions: 1 2 3 4 5 6 7 8 9 10 11 12 13 14 15 16 17 18 19 20 21 22 23 24 25 26 27

000
ASUS45 KCYS 240710
RWRWY

WYOMING REGIONAL WEATHER ROUNDUP
NATIONAL WEATHER SERVICE CHEYENNE WY
100 AM MDT TUE MAY 24 2016

NOTE:  "FAIR" INDICATES FEW OR NO CLOUDS BELOW 12,000 FEET
WITH NO SIGNIFICANT WEATHER AND/OR OBSTRUCTIONS TO VISIBILITY.

WYZ001-240800-
YELLOWSTONE NATIONAL PARK

CITY           SKY/WX    TMP DP  RH WIND       PRES   REMARKS
LK YELLOWSTONE   N/A     28  25  88 NW3       29.97S
W YELLOWSTONE  NOT AVBL

$$
WYZ002>013-054>058-071-098>099-240800-
NORTHERN WYOMING

CITY           SKY/WX    TMP DP  RH WIND       PRES   REMARKS
JACKSON        FAIR      39  32  75 SW6       29.94S WCI  35
CODY           FAIR      43  34  70 CALM      29.88F
GREYBULL       FAIR      48  33  56 CALM      29.85R
WORLAND        FAIR      39  31  72 CALM      29.85S
SHERIDAN       FAIR      39  33  79 SW3       29.89R
BUFFALO        FAIR      45  32  60 NW6       29.92R
GILLETTE       FAIR      33  30  88 CALM      29.89R
HULETT         FAIR      46  32  57 E5        29.89S
NEWCASTLE      FAIR      43  27  52 S3        29.87S

$$
WYZ014>020-022>026-101>103-240800-
CENTRAL WYOMING

CITY           SKY/WX    TMP DP  RH WIND       PRES   REMARKS
BIG PINEY      FAIR      35  29  78 CALM      29.98S
PINEDALE       FAIR      32  30  93 N3        29.98F
DUBOIS         FAIR      34  25  69 NW8       29.95S WCI  27
LANDER         FAIR      46  27  47 CALM      29.90S
RIVERTON       FAIR      46  26  45 SW5       29.91S
CASPER         FAIR      40  28  62 W6        29.91R
DOUGLAS        FAIR      41  32  70 E3        29.92S

$$
WYZ021-027>030-104>119-240800-
SOUTHERN WYOMING

CITY           SKY/WX    TMP DP  RH WIND       PRES   REMARKS
EVANSTON       FAIR      44  28  53 E5        29.95F
KEMMERER         N/A     36  30  80 N9        29.97F WCI  29
FORT BRIDGER   CLOUDY    45  34  65 W8        30.00S
ROCK SPRINGS   CLOUDY    45  33  63 SE9       29.96R
DIXON          FAIR      42  34  74 E3        29.99F
RAWLINS        FAIR      38  30  73 E3        29.98S
SARATOGA       FAIR      36  32  87 CALM      30.00S
LARAMIE        FAIR      33  29  85 SW7       30.01R WCI  27
CHEYENNE       FAIR      45  38  76 W5        29.98S
TORRINGTON     FAIR      45  40  82 SE6       29.90R
PINE BLUFFS    FAIR      36  36 100 SW3       29.96S

$$




USA.gov is the U.S. government's official web portal to all federal, state and local government web resources and services.